sat.trackr.live / text

‹ back to catalog

STARLINK-4494

NORAD 53558 · 2022-101AH

PAYLOAD ACTIVE UNKNOWN

§ Identity

Operator
Country
US
Launch date
2022-08-19
Launch site
AFETR
Launch vehicle
Mass (kg)
RCS (m²)

Purposes: comms

External: N2YO · Heavens-Above · Gunter

§ Orbital elements

Epoch: 2026-05-25T02:16:46.225344Z

Period
95.44 min
Inclination
53.2120°
Eccentricity
0.0001329
Mean motion
15.08805103 rev/d
Perigee alt
538.9 km
Apogee alt
540.8 km
Semi-major
6,918.0 km
B*
3.6242e-4
RAAN
75.8491°
Arg perigee
89.4861°
Mean anomaly
270.6283°
Rev number
20,857

§ Raw data

STARLINK-44941 53558U 22101AH  26145.09497946  .00005479  00000+0  36242-3 0  99922 53558  53.2120  75.8491 0001329  89.4861 270.6283 15.08805103208577

JSON: /api/v1/satellites/53558 · /tle

For live sub-satellite position, see the globe view (requires WebGL).

§ Visibility from observer

Set your observer location to see the next 7 days of passes ≥ 10°. The values pass through the URL so the page stays shareable.

No JS? Fill the form by hand. The geolocation button needs JavaScript.